[[{"header":{"parameterUnit":"m.s-1","parameterCategory":1,"la1":30.2991,"la2":30.254,"lo1":-89.0895,"lo2":-89.0444,"dy":0.0017,"dx":0.0017,"nx":28,"ny":28,"refTime":"2023-11-01T09:00:00:Z","depth":0,"parameterNumber":2,"parameterNumberName":"U-component_of_WINDS"},"data":[0,0,0,0,0,0,0,0,0,0,0,0,0,0,0,0,0,0,0,0,0,0,0,0,0,0,0,0,0,0,0,0,0,0,0,0,0,0,0,0,0,0,0,0,0,0,0,0,0,0,0,0,0,0,0,0,0,0,-1.3128,-1.3129,0,-1.3249,-1.325,-1.3252,-1.3211,-1.3209,-1.3206,-1.3203,-1.333,-1.3336,-1.3341,0,0,0,0,0,0,0,0,0,0,0,0,0,-1.2864,-1.287,-1.3128,-1.313,-1.3131,-1.3249,-1.325,-1.3252,-1.3212,-1.3208,-1.3205,-1.3202,-1.3328,-1.3335,-1.3342,0,0,0,0,0,0,0,0,0,0,0,0,0,-1.2982,-1.2871,-1.3128,-1.3125,-1.3126,-1.3248,-1.325,-1.3252,-1.3212,-1.3208,-1.3204,-1.3201,-1.3326,-1.3334,-1.3343,-1.3476,0,0,-1.3369,-1.3373,0,0,0,0,0,0,0,0,-1.2975,-1.2991,-1.3124,-1.3125,-1.3127,-1.3211,-1.3204,-1.3327,-1.3213,-1.318,-1.3203,-1.3199,-1.3294,-1.3305,-1.3336,-1.3482,-1.3487,-1.337,-1.3375,-1.3379,-1.3382,0,0,0,0,0,0,0,-1.2967,-1.2986,-1.3176,-1.3126,-1.3128,-1.3118,-1.3131,-1.3227,-1.3257,-1.3182,-1.318,-1.3194,-1.3294,-1.3328,-1.3339,-1.3489,-1.337,-1.3378,-1.3383,-1.3387,-1.375,-1.3754,0,0,0,0,0,0,-1.2958,-1.2979,-1.3172,-1.3179,-1.3039,-1.3126,-1.314,-1.3188,-1.3256,-1.3263,-1.3198,-1.3192,-1.3315,-1.3329,-1.3343,-1.3505,-1.3379,-1.3387,-1.3392,-1.3746,-1.3751,-1.3756,0,0,0,0,0,0,-1.2952,-1.2975,-1.3167,-1.3079,-1.3102,-1.3135,-1.3189,-1.3192,-1.3227,-1.3268,-1.3273,-1.3227,-1.3312,-1.3331,-1.3443,-1.3509,-1.3391,-1.3399,-1.374,-1.3747,-1.3753,-1.3828,0,0,0,0,0,0,-1.2945,-1.2973,-1.3024,-1.308,-1.3107,-1.3265,-1.3193,-1.3198,-1.3241,-1.3235,-1.3297,-1.3303,-1.3311,-1.343,-1.3452,-1.3519,-1.3406,-1.3735,-1.3743,-1.3751,-1.382,-1.3837,-1.3851,0,0,0,0,0,-1.2935,-1.3041,-1.3027,-1.3051,-1.3171,-1.3269,-1.3285,-1.329,-1.3247,-1.3299,-1.3325,-1.3301,-1.3497,-1.3442,-1.3466,-1.3536,-1.3731,-1.3741,-1.3751,-1.3814,-1.3834,-1.3851,0,0,0,0,0,0,-1.2994,-1.3048,-1.3034,-1.316,-1.321,-1.3262,-1.3328,-1.3311,-1.3375,-1.3367,-1.3372,-1.3386,-1.3502,-1.3529,-1.3467,-1.3669,-1.3607,-1.3623,-1.3647,-1.3667,-1.3682,-1.3674,-1.3413,0,0,0,0,0,-1.3021,-1.3095,-1.3139,-1.3246,-1.3272,-1.3295,-1.3338,-1.3338,-1.339,-1.3411,-1.3446,-1.3498,-1.3571,-1.362,-1.3689,-1.3822,-1.3836,-1.3882,-1.3898,-1.391,-1.3925,-1.3998,-1.402,-1.3788,-1.3788,-1.3788,0,0,-1.3079,-1.3117,-1.3164,-1.3259,-1.3297,-1.3375,-1.3314,-1.3398,-1.3456,-1.3424,-1.3533,-1.356,-1.3618,-1.3742,-1.3798,-1.3769,-1.3991,-1.3923,-1.3932,-1.394,-1.4011,-1.4033,-1.4052,-1.3795,-1.3794,-1.3793,0,0,-1.3224,-1.326,-1.3354,-1.3394,-1.3452,-1.3467,-1.3489,-1.3543,-1.356,-1.3668,-1.3646,-1.3714,-1.384,-1.3883,-1.3922,-1.4081,-1.4063,-1.4103,-1.4185,-1.4257,-1.4275,-1.4291,-1.4351,-1.4371,-1.4116,-1.4116,-1.4117,0,-1.329,-1.3405,-1.3405,-1.3492,-1.3534,-1.3507,-1.3603,-1.3641,-1.372,-1.3751,-1.3716,-1.3873,-1.391,-1.4044,-1.4083,-1.4114,-1.4141,-1.4098,-1.4272,-1.4288,-1.4304,-1.436,-1.4382,-1.4121,-1.4121,-1.412,-1.412,0,-1.3483,-1.3563,-1.3632,-1.3708,-1.3758,-1.3849,-1.3863,-1.3914,-1.3908,-1.3926,-1.4037,-1.408,-1.4159,-1.4189,-1.4185,-1.4323,-1.4303,-1.427,-1.4209,-1.433,-1.4384,-1.4405,-1.4128,-1.4126,-1.4125,-1.4124,0,0,-1.3673,-1.3746,-1.3772,-1.3806,-1.3867,-1.393,-1.4019,-1.4094,-1.4138,-1.4192,-1.4269,-1.4374,-1.4344,-1.4387,-1.4387,-1.4449,-1.4575,-1.4409,-1.441,-1.4441,-1.4732,-1.476,-1.4785,-1.4561,-1.4565,-1.4568,-1.4728,0,-1.3826,-1.3983,-1.3985,-1.4129,-1.4204,-1.4178,-1.4255,-1.4302,-1.432,-1.4387,-1.4407,-1.4483,-1.4435,-1.4462,-1.4522,-1.4547,-1.4635,-1.4535,-1.4635,-1.4638,-1.4625,-1.4812,-1.4842,-1.4991,-1.4749,-1.4752,-1.4755,0,-1.4027,-1.4087,-1.4239,-1.4289,-1.4321,-1.4391,-1.446,-1.4523,-1.4575,-1.4584,-1.4631,-1.4621,-1.4712,-1.4645,-1.4772,-1.4704,-1.4744,-1.4762,-1.4768,-1.4781,-1.4707,-1.4834,-1.5038,-1.5062,-1.4787,-1.4785,-1.4782,0,-1.4155,-1.4273,-1.4379,-1.4409,-1.4469,-1.4519,-1.4547,-1.4594,-1.464,-1.4699,-1.4729,-1.4799,-1.4838,-1.4892,-1.4901,-1.4851,-1.503,-1.4963,-1.5042,-1.5042,-1.5084,-1.5082,-1.5302,-1.5103,-1.5103,-1.5102,-1.5102,0,-1.4328,-1.4423,-1.4437,-1.4503,-1.4608,-1.4609,-1.4713,-1.4736,-1.4779,-1.4849,-1.4829,-1.4896,-1.4901,-1.497,-1.4977,-1.5082,-1.5099,-1.511,-1.5112,-1.5115,-1.5114,-1.5144,-1.5136,-1.5108,-1.5107,-1.5106,-1.5105,0,-1.449,-1.4503,-1.4618,-1.4665,-1.4679,-1.4755,-1.4795,-1.4858,-1.4873,-1.4963,-1.4984,-1.5008,-1.5087,-1.51,-1.5194,-1.5198,-1.5325,-1.5314,-1.5309,-1.5309,-1.5388,-1.5382,-1.5638,-1.5673,-1.5448,-1.545,-1.5452,0,-1.4602,-1.4675,-1.4729,-1.4774,-1.4804,-1.4877,-1.4923,-1.4925,-1.4973,-1.5036,-1.5092,-1.5169,-1.5232,-1.536,-1.5387,-1.5458,-1.5451,-1.5535,-1.5462,-1.5462,-1.5456,-1.5453,-1.5462,-1.5551,-1.5554,-1.5556,-1.5557,0,-1.4801,-1.4803,-1.4869,-1.4938,-1.4992,-1.5046,-1.5097,-1.5136,-1.5144,-1.5199,-1.528,-1.5328,-1.5423,-1.55,-1.5571,-1.5599,-1.5582,-1.5579,-1.5602,-1.5608,-1.5603,-1.561,-1.5352,-1.5575,-1.5573,-1.5572,-1.5571,-1.557,-1.4944,-1.5007,-1.5055,-1.513,-1.5167,-1.5215,-1.5277,-1.5299,-1.5366,-1.5443,-1.5439,-1.5529,-1.5577,-1.567,-1.5703,-1.5773,-1.5746,-1.5778,-1.5787,-1.5796,-1.5805,-1.5588,-1.5785,-1.5785,-1.5784,-1.5784,-1.5784,0,-1.5144,-1.5173,-1.5241,-1.5313,-1.5371,-1.5345,-1.54,-1.5451,-1.553,-1.5576,-1.5637,-1.573,-1.5804,-1.5835,-1.5908,-1.5958,-1.5952,-1.5978,-1.5977,-1.5984,-1.5824,-1.5799,-1.5982,-1.5982,-1.5982,-1.5982,-1.5982,-1.5982,-1.5256,-1.5362,-1.537,-1.5495,-1.5523,-1.561,-1.5643,-1.5687,-1.5725,-1.5829,-1.589,-1.5909,-1.595,-1.6025,-1.6093,-1.6099,-1.6129,-1.616,-1.6164,-1.6015,-1.5995,-1.5976,-1.5952,-1.6165,-1.6166,-1.6318,-1.632,-1.6321]},{"header":{"parameterUnit":"m.s-1","parameterCategory":1,"la1":30.2991,"la2":30.254,"lo1":-89.0895,"lo2":-89.0444,"dy":0.0017,"dx":0.0017,"nx":28,"ny":28,"refTime":"2023-11-01T09:00:00:Z","depth":0,"parameterNumber":3,"parameterNumberName":"V-component_of_WINDS"},"data":[0,0,0,0,0,0,0,0,0,0,0,0,0,0,0,0,0,0,0,0,0,0,0,0,0,0,0,0,0,0,0,0,0,0,0,0,0,0,0,0,0,0,0,0,0,0,0,0,0,0,0,0,0,0,0,0,0,0,-8.7516,-8.7518,0,-8.7722,-8.7725,-8.7727,-8.762,-8.7615,-8.761,-8.7604,-8.7809,-8.7819,-8.7829,0,0,0,0,0,0,0,0,0,0,0,0,0,-8.7022,-8.7032,-8.7516,-8.7519,-8.7521,-8.7722,-8.7725,-8.7728,-8.7621,-8.7615,-8.7608,-8.7602,-8.7805,-8.7817,-8.783,0,0,0,0,0,0,0,0,0,0,0,0,0,-8.7233,-8.7035,-8.7515,-8.7492,-8.7492,-8.7721,-8.7725,-8.7728,-8.7623,-8.7615,-8.7606,-8.7599,-8.7801,-8.7816,-8.7832,-8.8093,0,0,-8.788,-8.7887,0,0,0,0,0,0,0,0,-8.7221,-8.7251,-8.7493,-8.7494,-8.7495,-8.7637,-8.7625,-8.785,-8.7625,-8.7573,-8.7604,-8.7595,-8.7758,-8.7777,-8.7833,-8.8103,-8.8111,-8.7881,-8.7891,-8.7898,-8.7902,0,0,0,0,0,0,0,-8.7207,-8.7242,-8.7597,-8.7497,-8.7498,-8.7469,-8.749,-8.7668,-8.7709,-8.7577,-8.757,-8.7596,-8.7756,-8.7818,-8.7837,-8.8114,-8.7881,-8.7895,-8.7905,-8.7911,-8.8607,-8.8616,0,0,0,0,0,0,-8.7194,-8.723,-8.7591,-8.7603,-8.7335,-8.7485,-8.7508,-8.76,-8.7706,-8.7715,-8.7603,-8.759,-8.7795,-8.7819,-8.7844,-8.8157,-8.7898,-8.7912,-8.7922,-8.8598,-8.8609,-8.8619,0,0,0,0,0,0,-8.7184,-8.7228,-8.7582,-8.7415,-8.7458,-8.7502,-8.7606,-8.7608,-8.767,-8.7726,-8.7732,-8.7659,-8.779,-8.7822,-8.8032,-8.8162,-8.792,-8.7934,-8.8588,-8.8602,-8.8614,-8.8785,0,0,0,0,0,0,-8.7171,-8.7225,-8.7326,-8.7418,-8.7468,-8.7771,-8.7614,-8.7618,-8.7698,-8.7684,-8.778,-8.7788,-8.7786,-8.8009,-8.8048,-8.818,-8.7946,-8.8576,-8.8594,-8.861,-8.8768,-8.8803,-8.8833,0,0,0,0,0,-8.7153,-8.7365,-8.7332,-8.7376,-8.7596,-8.7778,-8.7806,-8.7801,-8.7709,-8.7811,-8.7846,-8.7785,-8.8142,-8.8032,-8.8074,-8.8213,-8.8568,-8.8589,-8.8609,-8.8754,-8.8796,-8.8832,0,0,0,0,0,0,-8.7285,-8.7377,-8.7341,-8.7589,-8.7677,-8.776,-8.7888,-8.7846,-8.796,-8.7942,-8.7928,-8.795,-8.817,-8.8211,-8.8088,-8.847,-8.834,-8.837,-8.8436,-8.8477,-8.8508,-8.8494,-8.7959,0,0,0,0,0,-8.7343,-8.7486,-8.7557,-8.7769,-8.7815,-8.7844,-8.7923,-8.7912,-8.8001,-8.8037,-8.8088,-8.8175,-8.8306,-8.8393,-8.8517,-8.8773,-8.8792,-8.8889,-8.8921,-8.8947,-8.8973,-8.9111,-8.9155,-8.8686,-8.8686,-8.8685,0,0,-8.7464,-8.7532,-8.7622,-8.7797,-8.7864,-8.801,-8.7876,-8.8036,-8.8144,-8.806,-8.8264,-8.8304,-8.84,-8.8634,-8.874,-8.8676,-8.9107,-8.8973,-8.8994,-8.9006,-8.9136,-8.9181,-8.922,-8.87,-8.8697,-8.8695,0,0,-8.776,-8.7826,-8.801,-8.808,-8.8183,-8.8201,-8.8245,-8.8335,-8.8359,-8.8563,-8.8504,-8.8629,-8.8856,-8.8927,-8.8993,-8.9314,-8.9262,-8.9354,-8.9524,-8.9658,-8.9695,-8.9727,-8.9842,-8.9884,-8.938,-8.9381,-8.9381,0,-8.7897,-8.8117,-8.8109,-8.8275,-8.8352,-8.8286,-8.8471,-8.8537,-8.8675,-8.8729,-8.8656,-8.894,-8.8999,-8.9249,-8.9328,-8.9383,-8.9432,-8.9344,-8.9691,-8.9723,-8.9754,-8.9863,-8.9906,-8.9391,-8.939,-8.9389,-8.9388,0,-8.828,-8.8434,-8.8569,-8.8707,-8.88,-8.8974,-8.899,-8.9084,-8.9064,-8.9089,-8.9296,-8.9365,-8.9502,-8.956,-8.9541,-8.9808,-8.9765,-8.9692,-8.956,-8.9809,-8.9912,-8.9953,-8.9407,-8.9403,-8.94,-8.9397,0,0,-8.8667,-8.8797,-8.8847,-8.8909,-8.9017,-8.9134,-8.9304,-8.944,-8.9521,-8.9617,-8.9759,-8.9952,-8.9885,-8.996,-8.9947,-9.0065,-9.0316,-8.9977,-8.9979,-9.0038,-9.0613,-9.0668,-9.0717,-9.0281,-9.0289,-9.0295,-9.0605,0,-8.897,-8.9271,-8.9268,-8.9546,-8.9687,-8.9624,-8.9772,-8.9853,-8.988,-9.0002,-9.003,-9.0168,-9.0069,-9.0113,-9.0227,-9.0261,-9.0431,-9.0239,-9.0411,-9.0417,-9.0391,-9.0771,-9.083,-9.1119,-9.0645,-9.0652,-9.0657,0,-8.9366,-8.9478,-8.9771,-8.9858,-8.9917,-9.0051,-9.0175,-9.0292,-9.0381,-9.0393,-9.0476,-9.0446,-9.0615,-9.0479,-9.0712,-9.0581,-9.0651,-9.0678,-9.0689,-9.0706,-9.0553,-9.0799,-9.1212,-9.1256,-9.072,-9.0714,-9.071,0,-8.9619,-8.9842,-9.0046,-9.0101,-9.0208,-9.0303,-9.0351,-9.0433,-9.0515,-9.0622,-9.0675,-9.08,-9.0868,-9.0964,-9.0967,-9.0867,-9.1202,-9.1066,-9.1215,-9.1216,-9.129,-9.1286,-9.1721,-9.1334,-9.1333,-9.1332,-9.1331,0,-8.9959,-9.0141,-9.0162,-9.0288,-9.0488,-9.0481,-9.0679,-9.0718,-9.0791,-9.0922,-9.0873,-9.0996,-9.0992,-9.1116,-9.1118,-9.1311,-9.1341,-9.1354,-9.1353,-9.136,-9.1358,-9.1406,-9.1386,-9.1343,-9.1341,-9.1339,-9.1337,0,-9.0277,-9.0299,-9.0517,-9.0601,-9.0626,-9.077,-9.084,-9.0959,-9.0981,-9.1146,-9.1184,-9.1219,-9.1362,-9.1374,-9.1539,-9.154,-9.1774,-9.175,-9.1746,-9.1742,-9.1891,-9.1877,-9.2374,-9.2438,-9.2008,-9.2012,-9.2015,0,-9.0494,-9.0632,-9.0731,-9.0817,-9.0871,-9.1009,-9.1092,-9.1089,-9.1178,-9.129,-9.1395,-9.1534,-9.1645,-9.1876,-9.1914,-9.204,-9.2019,-9.2184,-9.2038,-9.204,-9.2023,-9.2015,-9.2029,-9.2213,-9.2218,-9.2222,-9.2225,0,-9.0876,-9.088,-9.1004,-9.1133,-9.1235,-9.1335,-9.1428,-9.1499,-9.1507,-9.1609,-9.1757,-9.1843,-9.2012,-9.2151,-9.2274,-9.232,-9.2275,-9.2271,-9.2312,-9.2321,-9.2313,-9.232,-9.1824,-9.226,-9.2256,-9.2254,-9.2252,-9.225,-9.1151,-9.1271,-9.136,-9.15,-9.157,-9.1658,-9.1774,-9.1811,-9.1935,-9.2075,-9.2064,-9.2227,-9.231,-9.2471,-9.2527,-9.2653,-9.2597,-9.2657,-9.2672,-9.2687,-9.2703,-9.2292,-9.2675,-9.2674,-9.2673,-9.2672,-9.2671,0,-9.1532,-9.1586,-9.1714,-9.1848,-9.1957,-9.1906,-9.2006,-9.21,-9.2245,-9.2329,-9.244,-9.2608,-9.2741,-9.279,-9.2919,-9.301,-9.2993,-9.3045,-9.3038,-9.305,-9.2746,-9.2698,-9.3057,-9.3057,-9.3057,-9.3057,-9.3057,-9.3056,-9.1743,-9.1944,-9.1958,-9.2192,-9.2244,-9.2405,-9.2467,-9.2547,-9.2614,-9.2806,-9.2917,-9.2949,-9.3018,-9.3152,-9.3271,-9.3281,-9.3331,-9.3393,-9.3395,-9.311,-9.3071,-9.3034,-9.2989,-9.3404,-9.3404,-9.3688,-9.3691,-9.3693]}]]